Location: Ehrke Reservoir
(40.0279°N, 99.6641°W)
Time: 12:39:06
(UTC+00:00)

Cosmos 44 Rocket - Pass Details

Date: 20 January 2020
Orbit: 660 x 730 km, 65.1° (Epoch: 27 February)

Event Time Altitude Azimuth Distance (km) Brightness Sun altitude
Exits shadow 11:43:03 45° 8° (N) 914 3.8 -25.3°
Maximum altitude 11:44:09 56° 56° (NE) 791 3.7 -25.1°
Drops below altitude 10° 11:48:50 10° 134° (SE) 2,100 6.4 -24.2°
Sets 11:51:12 0° 139° (SE) 3,020 7.3 -23.8°
